User: anonymous   Login
Location: Noordwijk
(52.2400°N, 4.4500°E)
Time: 07:28:41
(UTC+00:00)
Language:

CAS-4B - Orbit

View from above orbital plane
View from above orbital plane
View from above satellite
View from above satellite

Ground track
Ground track

The orbit data is extracted from the following two-line orbital elements,

1 42759U 17034B   22339.82013984  .00003915  00000-0  22770-3 0  9995
2 42759  43.0161 107.2135 0011499 293.1317 196.6063 15.13389488302302
Epoch (UTC): 05 December 2022 19:41:00
Eccentricity: 0.0011499
inclination: 43.0161°
perigee height: 518 km
apogee height: 534 km
right ascension of ascending node: 107.2135°
argument of perigee: 293.1317°
revolutions per day: 15.13389488
mean anomaly at epoch: 196.6063°
orbit number at epoch: 30230

The dashed part of the orbit path shows where the satellite is in the earth's shadow,  

DLR